Location: Fond Mahaut
(18.0707°N, 63.0465°W)
Time: 07:46:54
(UTC+00:00)

Cosmos 1140 Rocket - Pass Details

Date: 08 December 2019
Orbit: 744 x 768 km, 74.1° (Epoch: 28 January)

Event Time Altitude Azimuth Distance (km) Brightness Sun altitude
Rises 22:15:14 0° 184° (S) 3,173 7.1 -9.3°
Reaches altitude 10° 22:17:37 10° 180° (S) 2,249 6.2 -9.9°
Maximum altitude 22:22:36 57° 102° (ESE) 873 3.5 -11.0°
Drops below altitude 10° 22:27:35 10° 24° (NNE) 2,253 5.5 -12.1°
Enters shadow 22:28:42 - 22° (NNE) 2,686 5.9 -12.3°
